UAL2042 KIAH-KSAV

Flight info

Callsign UAL2042
Flight time 1h 41m
Altitude 37000
Route GUMBY3 GUSTI AWDAD SJI J2 CEW ALLMA JANIE SAV
Aircraft A319/M-SDE3FGHIRWY/LB1

Departure

Time 2026-05-07 12:47
Airport George Bush Intercontinental Airport (KIAH)

Arrival

Time 2026-05-07 14:28
Airport Savannah Hilton Head International Airport (KSAV)
Time Latitude Longitude Altitude Speed Heading
2026-05-07 12:32 29.98523 -95.33589 108 ft 0 kts 47°
2026-05-07 12:38 29.98522 -95.33591 107 ft 2 kts 47°
2026-05-07 12:38 29.98511 -95.33605 105 ft 2 kts 47°
2026-05-07 12:38 29.98500 -95.33618 106 ft 2 kts 47°
2026-05-07 12:38 29.98489 -95.33632 107 ft 2 kts 47°
2026-05-07 12:39 29.98478 -95.33646 105 ft 2 kts 47°
2026-05-07 12:39 29.98468 -95.33660 104 ft 2 kts 70°
2026-05-07 12:39 29.98465 -95.33671 106 ft 0 kts 81°
2026-05-07 12:41 29.98464 -95.33669 106 ft 2 kts 90°
2026-05-07 12:41 29.98435 -95.33665 107 ft 8 kts 187°
2026-05-07 12:41 29.98369 -95.33665 107 ft 11 kts 180°
2026-05-07 12:42 29.98317 -95.33722 107 ft 13 kts 268°
2026-05-07 12:42 29.98317 -95.33835 107 ft 15 kts 270°
2026-05-07 12:42 29.98320 -95.33968 107 ft 18 kts 279°
2026-05-07 12:42 29.98372 -95.34107 107 ft 20 kts 281°
2026-05-07 12:43 29.98376 -95.34280 107 ft 23 kts 270°
2026-05-07 12:43 29.98377 -95.34475 107 ft 26 kts 270°
2026-05-07 12:43 29.98378 -95.34693 107 ft 28 kts 270°
2026-05-07 12:43 29.98380 -95.34933 107 ft 31 kts 270°
2026-05-07 12:44 29.98381 -95.35155 107 ft 20 kts 270°
2026-05-07 12:44 29.98454 -95.35246 107 ft 18 kts 333°
2026-05-07 12:44 29.98576 -95.35321 107 ft 22 kts 330°
2026-05-07 12:44 29.98720 -95.35411 107 ft 26 kts 332°
2026-05-07 12:45 29.98886 -95.35485 107 ft 25 kts
2026-05-07 12:45 29.99052 -95.35484 107 ft 19 kts 359°
2026-05-07 12:45 29.99130 -95.35485 107 ft 18 kts 359°
2026-05-07 12:45 29.99302 -95.35482 107 ft 11 kts 12°
2026-05-07 12:46 29.99336 -95.35436 106 ft 13 kts 74°
2026-05-07 12:46 29.99342 -95.35174 109 ft 61 kts 90°
2026-05-07 12:46 29.99342 -95.34449 105 ft 119 kts 90°
2026-05-07 12:46 29.99350 -95.33289 166 ft 163 kts 88°
2026-05-07 12:47 29.99327 -95.31986 806 ft 161 kts 89°
2026-05-07 12:47 29.99286 -95.30700 1476 ft 164 kts 87°
2026-05-07 12:47 29.99234 -95.29289 1830 ft 188 kts 88°
2026-05-07 12:47 29.99165 -95.27693 2218 ft 211 kts 88°
2026-05-07 12:48 29.99077 -95.25906 2713 ft 237 kts 94°
2026-05-07 12:48 29.98629 -95.23970 3206 ft 262 kts 107°
2026-05-07 12:48 29.98049 -95.21913 3920 ft 276 kts 108°
2026-05-07 12:48 29.97429 -95.19782 4784 ft 283 kts 109°
2026-05-07 12:49 29.96795 -95.17611 5674 ft 288 kts 110°
2026-05-07 12:49 29.96153 -95.15401 6531 ft 293 kts 109°
2026-05-07 12:49 29.95508 -95.13153 7340 ft 298 kts 109°
2026-05-07 12:49 29.94852 -95.10862 8126 ft 304 kts 109°
2026-05-07 12:50 29.94181 -95.08518 8892 ft 311 kts 107°
2026-05-07 12:50 29.93771 -95.06042 9638 ft 318 kts 95°
2026-05-07 12:50 29.93519 -95.03471 10246 ft 331 kts 95°
2026-05-07 12:50 29.93252 -95.00742 10506 ft 354 kts 96°
2026-05-07 12:51 29.92968 -94.97830 10725 ft 376 kts 96°
2026-05-07 12:51 29.92671 -94.94784 11233 ft 386 kts 96°
2026-05-07 12:51 29.92364 -94.91693 11880 ft 391 kts 97°
2026-05-07 12:51 29.92043 -94.88568 12563 ft 394 kts 98°
2026-05-07 12:52 29.91722 -94.85459 13234 ft 398 kts 98°
2026-05-07 12:52 29.91394 -94.82275 13912 ft 402 kts 98°
2026-05-07 12:52 29.91067 -94.79066 14516 ft 405 kts 99°
2026-05-07 12:52 29.90740 -94.75829 15122 ft 408 kts 99°
2026-05-07 12:53 29.90411 -94.72569 15737 ft 411 kts 100°
2026-05-07 12:53 29.90078 -94.69289 16348 ft 414 kts 101°
2026-05-07 12:53 29.89739 -94.65980 16953 ft 417 kts 101°
2026-05-07 12:53 29.89395 -94.62651 17561 ft 420 kts 102°
2026-05-07 12:54 29.89047 -94.59300 18171 ft 423 kts 102°
2026-05-07 12:54 29.88697 -94.55920 18694 ft 427 kts 102°
2026-05-07 12:54 29.88343 -94.52492 19090 ft 434 kts 102°
2026-05-07 12:54 29.87982 -94.49015 19530 ft 440 kts 102°
2026-05-07 12:55 29.87615 -94.45497 19979 ft 445 kts 102°
2026-05-07 12:55 29.87241 -94.41937 20425 ft 451 kts 101°
2026-05-07 12:55 29.86861 -94.38329 20861 ft 456 kts 101°
2026-05-07 12:55 29.86476 -94.34682 21291 ft 461 kts 101°
2026-05-07 12:56 29.86114 -94.30992 21698 ft 467 kts 99°
2026-05-07 12:56 29.85878 -94.27239 22103 ft 473 kts 96°
2026-05-07 12:56 29.85757 -94.23437 22482 ft 478 kts 94°
2026-05-07 12:56 29.85700 -94.19586 22863 ft 483 kts 93°
2026-05-07 12:57 29.85658 -94.15705 23236 ft 487 kts 92°
2026-05-07 12:57 29.85599 -94.11789 23612 ft 491 kts 93°
2026-05-07 12:57 29.85512 -94.07849 23935 ft 494 kts 94°
2026-05-07 12:57 29.85512 -94.03878 24278 ft 498 kts 88°
2026-05-07 12:58 29.85876 -93.99898 24628 ft 501 kts 84°
2026-05-07 12:58 29.86293 -93.95909 24982 ft 503 kts 84°
2026-05-07 12:58 29.86716 -93.91899 25334 ft 505 kts 84°
2026-05-07 12:58 29.87145 -93.87869 25691 ft 508 kts 84°
2026-05-07 12:59 29.87578 -93.83827 26039 ft 510 kts 84°
2026-05-07 12:59 29.88016 -93.79762 26414 ft 512 kts 84°
2026-05-07 12:59 29.88454 -93.75683 26756 ft 514 kts 84°
2026-05-07 12:59 29.88887 -93.71579 27074 ft 517 kts 84°
2026-05-07 13:00 29.89314 -93.67458 27418 ft 519 kts 84°
2026-05-07 13:00 29.89740 -93.63322 27746 ft 521 kts 84°
2026-05-07 13:00 29.90163 -93.59224 28069 ft 523 kts 84°
2026-05-07 13:00 29.90599 -93.55050 28393 ft 525 kts 84°
2026-05-07 13:01 29.91033 -93.50863 28702 ft 528 kts 84°
2026-05-07 13:01 29.91468 -93.46651 29017 ft 530 kts 84°
2026-05-07 13:01 29.91906 -93.42426 29322 ft 532 kts 84°
2026-05-07 13:01 29.92344 -93.38186 29624 ft 534 kts 84°
2026-05-07 13:02 29.92780 -93.33925 29919 ft 536 kts 85°
2026-05-07 13:02 29.93213 -93.29654 30236 ft 537 kts 85°
2026-05-07 13:02 29.93646 -93.25377 30597 ft 536 kts 85°
2026-05-07 13:02 29.94077 -93.21117 30956 ft 535 kts 85°
2026-05-07 13:03 29.94508 -93.16854 31300 ft 535 kts 85°
2026-05-07 13:03 29.94940 -93.12597 31653 ft 535 kts 85°
2026-05-07 13:03 29.95369 -93.08337 32020 ft 534 kts 85°
2026-05-07 13:03 29.95795 -93.04083 32373 ft 534 kts 85°
2026-05-07 13:04 29.96217 -92.99829 32723 ft 534 kts 85°
2026-05-07 13:04 29.96635 -92.95571 33081 ft 534 kts 85°
2026-05-07 13:04 29.97053 -92.91318 33449 ft 534 kts 85°
2026-05-07 13:04 29.97453 -92.87061 33821 ft 534 kts 86°
2026-05-07 13:05 29.97817 -92.82806 34182 ft 533 kts 86°
2026-05-07 13:05 29.98156 -92.78549 34520 ft 532 kts 87°
2026-05-07 13:05 29.98480 -92.74301 34855 ft 532 kts 87°
2026-05-07 13:05 29.98799 -92.70053 35186 ft 532 kts 87°
2026-05-07 13:06 29.99122 -92.65804 35517 ft 531 kts 87°
2026-05-07 13:06 29.99451 -92.61563 35833 ft 531 kts 87°
2026-05-07 13:06 29.99786 -92.57327 36136 ft 531 kts 87°
2026-05-07 13:06 30.00127 -92.53082 36439 ft 530 kts 87°
2026-05-07 13:07 30.00466 -92.48852 36734 ft 530 kts 87°
2026-05-07 13:07 30.00805 -92.44617 36979 ft 531 kts 87°
2026-05-07 13:07 30.01475 -92.36147 37037 ft 530 kts 87°
2026-05-07 13:08 30.02133 -92.27684 37032 ft 529 kts 87°
2026-05-07 13:08 30.02775 -92.19222 37037 ft 529 kts 87°
2026-05-07 13:09 30.03410 -92.10819 37036 ft 529 kts 88°
2026-05-07 13:09 30.04047 -92.02367 37032 ft 529 kts 88°
2026-05-07 13:10 30.04685 -91.93863 37039 ft 529 kts 88°
2026-05-07 13:10 30.05306 -91.85464 37012 ft 529 kts 88°
2026-05-07 13:11 30.05925 -91.77006 37024 ft 529 kts 88°
2026-05-07 13:11 30.06546 -91.68555 37029 ft 528 kts 88°
2026-05-07 13:12 30.07165 -91.60103 37028 ft 528 kts 88°
2026-05-07 13:12 30.07762 -91.51644 37024 ft 528 kts 88°
2026-05-07 13:13 30.08354 -91.43190 37035 ft 528 kts 88°
2026-05-07 13:13 30.08953 -91.34746 37030 ft 527 kts 88°
2026-05-07 13:14 30.09535 -91.26316 37033 ft 527 kts 88°
2026-05-07 13:14 30.10114 -91.17895 37033 ft 520 kts 88°
2026-05-07 13:15 30.10398 -91.13794 37007 ft 505 kts 88°
2026-05-07 13:15 30.10674 -91.09772 37036 ft 502 kts 88°
2026-05-07 13:15 30.11221 -91.01649 37031 ft 514 kts 88°
2026-05-07 13:16 30.12113 -90.93362 37015 ft 527 kts 77°
2026-05-07 13:16 30.14111 -90.85184 37014 ft 530 kts 75°
2026-05-07 13:17 30.16133 -90.76996 37015 ft 530 kts 75°
2026-05-07 13:17 30.18136 -90.68811 37016 ft 528 kts 75°
2026-05-07 13:18 30.20119 -90.60647 37017 ft 527 kts 75°
2026-05-07 13:18 30.22096 -90.52482 37016 ft 527 kts 75°
2026-05-07 13:19 30.24073 -90.44321 37013 ft 527 kts 75°
2026-05-07 13:19 30.26052 -90.36156 37006 ft 527 kts 75°
2026-05-07 13:20 30.28006 -90.28063 37022 ft 526 kts 75°
2026-05-07 13:20 30.29960 -90.19921 37018 ft 525 kts 75°
2026-05-07 13:21 30.31903 -90.11794 37001 ft 524 kts 75°
2026-05-07 13:21 30.33848 -90.03671 36996 ft 524 kts 75°
2026-05-07 13:22 30.35788 -89.95549 37019 ft 523 kts 75°
2026-05-07 13:22 30.37708 -89.87425 37020 ft 522 kts 75°
2026-05-07 13:23 30.39626 -89.79309 37019 ft 522 kts 75°
2026-05-07 13:23 30.41542 -89.71196 37019 ft 522 kts 75°
2026-05-07 13:24 30.43448 -89.63084 37003 ft 522 kts 75°
2026-05-07 13:24 30.45353 -89.54959 36999 ft 522 kts 75°
2026-05-07 13:25 30.47256 -89.46826 36988 ft 523 kts 75°
2026-05-07 13:25 30.49156 -89.38694 36986 ft 523 kts 75°
2026-05-07 13:26 30.51050 -89.30559 36983 ft 523 kts 75°
2026-05-07 13:26 30.52933 -89.22415 36979 ft 523 kts 75°
2026-05-07 13:27 30.54812 -89.14270 36985 ft 523 kts 75°
2026-05-07 13:27 30.56680 -89.06123 36970 ft 522 kts 75°
2026-05-07 13:28 30.58546 -88.97984 36970 ft 522 kts 75°
2026-05-07 13:28 30.60416 -88.89847 36967 ft 522 kts 75°
2026-05-07 13:29 30.62276 -88.81699 36967 ft 522 kts 75°
2026-05-07 13:29 30.64128 -88.73554 36986 ft 522 kts 75°
2026-05-07 13:30 30.65959 -88.65464 36989 ft 521 kts 75°
2026-05-07 13:30 30.67805 -88.57284 36990 ft 521 kts 75°
2026-05-07 13:31 30.69636 -88.49170 36991 ft 521 kts 75°
2026-05-07 13:31 30.71466 -88.41024 37002 ft 521 kts 75°
2026-05-07 13:32 30.72820 -88.32771 37010 ft 519 kts 87°
2026-05-07 13:32 30.73351 -88.24398 37012 ft 519 kts 87°
2026-05-07 13:33 30.73892 -88.16093 37007 ft 518 kts 87°
2026-05-07 13:33 30.74439 -88.07722 37004 ft 518 kts 86°
2026-05-07 13:34 30.75153 -87.96553 37003 ft 518 kts 86°
2026-05-07 13:35 30.75669 -87.88268 37001 ft 517 kts 87°
2026-05-07 13:35 30.76182 -87.79922 36995 ft 517 kts 87°
2026-05-07 13:36 30.76695 -87.71576 36989 ft 517 kts 87°
2026-05-07 13:36 30.77207 -87.63221 36972 ft 517 kts 86°
2026-05-07 13:37 30.77707 -87.54857 36973 ft 518 kts 86°
2026-05-07 13:37 30.78204 -87.46535 36974 ft 518 kts 86°
2026-05-07 13:38 30.78697 -87.38172 36973 ft 518 kts 87°
2026-05-07 13:38 30.79188 -87.29788 36972 ft 518 kts 86°
2026-05-07 13:39 30.79685 -87.21421 36971 ft 518 kts 87°
2026-05-07 13:39 30.79706 -87.13074 36988 ft 518 kts 91°
2026-05-07 13:40 30.79807 -87.04685 36993 ft 518 kts 90°
2026-05-07 13:40 30.79956 -86.96350 36990 ft 518 kts 90°
2026-05-07 13:41 30.80051 -86.87961 36999 ft 518 kts 90°
2026-05-07 13:41 30.80106 -86.79579 36994 ft 517 kts 90°
2026-05-07 13:42 30.80153 -86.71221 37047 ft 516 kts 90°
2026-05-07 13:42 30.80207 -86.62918 37065 ft 516 kts 90°
2026-05-07 13:43 30.80262 -86.54577 37062 ft 516 kts 90°
2026-05-07 13:43 30.80308 -86.46230 37057 ft 516 kts 90°
2026-05-07 13:44 30.80347 -86.37877 37050 ft 517 kts 90°
2026-05-07 13:44 30.80378 -86.29528 37039 ft 517 kts 90°
2026-05-07 13:45 30.80414 -86.21167 37012 ft 517 kts 90°
2026-05-07 13:45 30.80444 -86.12811 37015 ft 517 kts 90°
2026-05-07 13:46 30.80456 -86.04441 37024 ft 517 kts 90°
2026-05-07 13:46 30.80465 -85.96097 37022 ft 517 kts 90°
2026-05-07 13:47 30.80480 -85.87733 37047 ft 517 kts 90°
2026-05-07 13:47 30.80484 -85.79367 37055 ft 517 kts 90°
2026-05-07 13:48 30.80481 -85.70988 37063 ft 517 kts 90°
2026-05-07 13:48 30.80475 -85.62622 37064 ft 517 kts 90°
2026-05-07 13:49 30.80459 -85.54321 37063 ft 516 kts 90°
2026-05-07 13:49 30.80438 -85.45954 37053 ft 516 kts 90°
2026-05-07 13:50 30.80412 -85.37596 37042 ft 516 kts 90°
2026-05-07 13:50 30.80382 -85.29241 37058 ft 516 kts 90°
2026-05-07 13:51 30.80347 -85.20893 37059 ft 516 kts 90°
2026-05-07 13:51 30.80305 -85.12575 37056 ft 516 kts 90°
2026-05-07 13:52 30.80260 -85.04201 37049 ft 516 kts 90°
2026-05-07 13:52 30.80208 -84.95899 37046 ft 515 kts 90°
2026-05-07 13:53 30.80154 -84.87568 37035 ft 515 kts 91°
2026-05-07 13:53 30.80090 -84.79232 37027 ft 514 kts 91°
2026-05-07 13:54 30.80022 -84.70962 37020 ft 514 kts 91°
2026-05-07 13:54 30.79949 -84.62654 37025 ft 514 kts 91°
2026-05-07 13:55 30.79870 -84.54338 37030 ft 513 kts 91°
2026-05-07 13:55 30.79792 -84.46019 37041 ft 513 kts 91°
2026-05-07 13:56 30.79707 -84.37710 37040 ft 513 kts 91°
2026-05-07 13:56 30.79610 -84.29400 37042 ft 513 kts 91°
2026-05-07 13:57 30.79514 -84.21158 37057 ft 513 kts 91°
2026-05-07 13:57 30.79407 -84.12854 37071 ft 513 kts 91°
2026-05-07 13:58 30.79298 -84.04544 37078 ft 513 kts 91°
2026-05-07 13:58 30.79187 -83.96248 37093 ft 513 kts 91°
2026-05-07 13:59 30.79068 -83.87943 37086 ft 513 kts 91°
2026-05-07 13:59 30.78942 -83.79688 37089 ft 513 kts 91°
2026-05-07 14:00 30.78809 -83.71375 37072 ft 513 kts 91°
2026-05-07 14:00 30.78675 -83.63114 37070 ft 514 kts 91°
2026-05-07 14:01 30.78536 -83.54789 37071 ft 514 kts 91°
2026-05-07 14:01 30.78389 -83.46479 37070 ft 514 kts 91°
2026-05-07 14:02 30.78232 -83.38154 37084 ft 514 kts 91°
2026-05-07 14:02 30.78764 -83.29951 37100 ft 511 kts 75°
2026-05-07 14:03 30.81282 -83.22293 37095 ft 504 kts 56°
2026-05-07 14:03 30.85054 -83.15441 37076 ft 501 kts 52°
2026-05-07 14:04 30.88834 -83.08609 37078 ft 502 kts 53°
2026-05-07 14:04 30.92569 -83.01791 37069 ft 502 kts 53°
2026-05-07 14:05 30.96334 -82.94927 37076 ft 502 kts 53°
2026-05-07 14:05 31.00111 -82.88070 37072 ft 501 kts 53°
2026-05-07 14:06 31.03857 -82.81267 37074 ft 501 kts 53°
2026-05-07 14:06 31.07620 -82.74421 36922 ft 498 kts 53°
2026-05-07 14:06 31.09479 -82.71026 36665 ft 494 kts 53°
2026-05-07 14:07 31.11341 -82.67622 36418 ft 498 kts 53°
2026-05-07 14:07 31.13184 -82.64254 36179 ft 500 kts 53°
2026-05-07 14:07 31.15061 -82.60825 35901 ft 501 kts 53°
2026-05-07 14:07 31.16954 -82.57369 34943 ft 510 kts 53°
2026-05-07 14:08 31.18883 -82.53848 34058 ft 516 kts 53°
2026-05-07 14:08 31.20835 -82.50281 32837 ft 525 kts 53°
2026-05-07 14:08 31.22787 -82.46696 31964 ft 527 kts 54°
2026-05-07 14:08 31.24728 -82.43110 31516 ft 517 kts 54°
2026-05-07 14:09 31.26648 -82.39558 30728 ft 517 kts 54°
2026-05-07 14:09 31.28564 -82.36017 30151 ft 511 kts 53°
2026-05-07 14:09 31.30444 -82.32542 29178 ft 502 kts 53°
2026-05-07 14:09 31.32300 -82.29109 27811 ft 500 kts 53°
2026-05-07 14:10 31.34171 -82.25658 26481 ft 500 kts 53°
2026-05-07 14:10 31.36000 -82.22284 25392 ft 493 kts 53°
2026-05-07 14:10 31.37826 -82.18911 24379 ft 486 kts 53°
2026-05-07 14:10 31.39617 -82.15598 23348 ft 478 kts 53°
2026-05-07 14:11 31.41397 -82.12310 22386 ft 476 kts 53°
2026-05-07 14:11 31.43162 -82.09048 21467 ft 472 kts 53°
2026-05-07 14:11 31.44916 -82.05802 20672 ft 472 kts 54°
2026-05-07 14:11 31.46670 -82.02548 19961 ft 470 kts 54°
2026-05-07 14:12 31.48387 -81.99353 19285 ft 468 kts 54°
2026-05-07 14:12 31.50124 -81.96118 18606 ft 467 kts 54°
2026-05-07 14:12 31.51855 -81.92892 17896 ft 466 kts 54°
2026-05-07 14:12 31.53573 -81.89678 17224 ft 462 kts 54°
2026-05-07 14:13 31.55275 -81.86501 16657 ft 456 kts 54°
2026-05-07 14:13 31.56922 -81.83432 16198 ft 446 kts 54°
2026-05-07 14:13 31.58565 -81.80363 15570 ft 441 kts 54°
2026-05-07 14:13 31.60195 -81.77322 14898 ft 438 kts 55°
2026-05-07 14:14 31.61813 -81.74303 14218 ft 435 kts 55°
2026-05-07 14:14 31.63417 -81.71310 13520 ft 432 kts 56°
2026-05-07 14:14 31.65007 -81.68331 12800 ft 428 kts 56°
2026-05-07 14:14 31.66562 -81.65417 12137 ft 423 kts 56°
2026-05-07 14:15 31.68115 -81.62499 11457 ft 416 kts 56°
2026-05-07 14:15 31.69664 -81.59623 11151 ft 415 kts 56°
2026-05-07 14:15 31.71223 -81.56773 10953 ft 414 kts 55°
2026-05-07 14:15 31.72766 -81.53992 10610 ft 394 kts 54°
2026-05-07 14:16 31.74217 -81.51392 10488 ft 367 kts 54°
2026-05-07 14:16 31.75555 -81.48990 10325 ft 346 kts 54°
2026-05-07 14:16 31.76856 -81.46652 9912 ft 337 kts 54°
2026-05-07 14:16 31.78136 -81.44352 9376 ft 334 kts 54°
2026-05-07 14:17 31.79405 -81.42068 9016 ft 334 kts 54°
2026-05-07 14:17 31.80666 -81.39797 8590 ft 336 kts 54°
2026-05-07 14:17 31.81935 -81.37501 8245 ft 334 kts 54°
2026-05-07 14:17 31.83195 -81.35213 7927 ft 332 kts 54°
2026-05-07 14:18 31.84449 -81.32939 7617 ft 329 kts 54°
2026-05-07 14:18 31.85690 -81.30692 7274 ft 326 kts 55°
2026-05-07 14:18 31.86927 -81.28452 6944 ft 325 kts 55°
2026-05-07 14:18 31.88136 -81.26260 6663 ft 321 kts 56°
2026-05-07 14:19 31.89346 -81.24064 6359 ft 318 kts 56°
2026-05-07 14:19 31.90547 -81.21888 6019 ft 315 kts 56°
2026-05-07 14:19 31.91740 -81.19719 5688 ft 313 kts 57°
2026-05-07 14:19 31.92907 -81.17598 5367 ft 311 kts 57°
2026-05-07 14:20 31.94085 -81.15458 5015 ft 310 kts 57°
2026-05-07 14:20 31.94859 -81.14051 4799 ft 309 kts 57°
2026-05-07 14:20 31.96413 -81.11221 4355 ft 306 kts 57°
2026-05-07 14:20 31.97178 -81.09831 4124 ft 305 kts 57°
2026-05-07 14:21 31.98321 -81.07745 3941 ft 298 kts 57°
2026-05-07 14:21 31.99418 -81.05742 3926 ft 284 kts 57°
2026-05-07 14:21 32.00474 -81.03813 3798 ft 274 kts 57°
2026-05-07 14:21 32.01490 -81.01955 3680 ft 264 kts 57°
2026-05-07 14:22 32.02787 -80.99587 3357 ft 257 kts 56°
2026-05-07 14:22 32.03533 -80.98495 3077 ft 259 kts 42°
2026-05-07 14:22 32.05024 -80.97324 2714 ft 255 kts 18°
2026-05-07 14:22 32.06702 -80.96848 2488 ft 241 kts 355°
2026-05-07 14:23 32.08352 -80.96818 2466 ft 236 kts 352°
2026-05-07 14:23 32.10001 -80.96792 2470 ft 238 kts 352°
2026-05-07 14:23 32.11531 -80.97110 2453 ft 208 kts 320°
2026-05-07 14:23 32.12432 -80.98209 2497 ft 176 kts 287°
2026-05-07 14:24 32.12651 -80.99536 2475 ft 161 kts 263°
2026-05-07 14:24 32.12659 -81.00850 2504 ft 159 kts 264°
2026-05-07 14:24 32.12672 -81.02156 2507 ft 159 kts 264°
2026-05-07 14:24 32.12687 -81.03462 2506 ft 159 kts 264°
2026-05-07 14:25 32.12702 -81.04764 2437 ft 159 kts 265°
2026-05-07 14:25 32.12716 -81.06058 2216 ft 158 kts 263°
2026-05-07 14:25 32.12728 -81.07345 2006 ft 159 kts 264°
2026-05-07 14:25 32.12740 -81.08645 1788 ft 157 kts 265°
2026-05-07 14:26 32.12754 -81.09906 1575 ft 150 kts 266°
2026-05-07 14:26 32.12768 -81.11112 1374 ft 143 kts 265°
2026-05-07 14:26 32.12783 -81.12232 1193 ft 129 kts 265°
2026-05-07 14:26 32.12795 -81.13250 1023 ft 123 kts 265°
2026-05-07 14:27 32.12805 -81.14247 876 ft 122 kts 266°
2026-05-07 14:27 32.12814 -81.15249 726 ft 120 kts 265°
2026-05-07 14:27 32.12824 -81.16244 560 ft 122 kts 264°
2026-05-07 14:27 32.12839 -81.17238 393 ft 120 kts 265°
2026-05-07 14:28 32.12848 -81.18208 219 ft 117 kts 260°
2026-05-07 14:28 32.12856 -81.19153 48 ft 115 kts 261°
2026-05-07 14:28 32.12857 -81.19951 40 ft 73 kts 271°
2026-05-07 14:28 32.12867 -81.20302 43 ft 16 kts 292°
2026-05-07 14:29 32.12967 -81.20332 50 ft 14 kts
2026-05-07 14:29 32.13070 -81.20330 53 ft 17 kts
2026-05-07 14:29 32.13198 -81.20330 53 ft 19 kts 359°
2026-05-07 14:29 32.13339 -81.20331 54 ft 21 kts 360°
2026-05-07 14:30 32.13420 -81.20336 54 ft 9 kts 341°
2026-05-07 14:30 32.13445 -81.20411 54 ft 11 kts 272°
2026-05-07 14:30 32.13447 -81.20516 54 ft 14 kts 271°
2026-05-07 14:30 32.13448 -81.20645 54 ft 17 kts 270°
2026-05-07 14:31 32.13449 -81.20780 54 ft 9 kts 271°
2026-05-07 14:31 32.13471 -81.20832 54 ft 7 kts 346°
2026-05-07 14:31 32.13515 -81.20832 54 ft 3 kts 359°
2026-05-07 14:31 32.13523 -81.20832 54 ft 0 kts 359°